W5CGC Weather Reports


time (UTC)temp
C
wind
direction
speed
KPH
gust
KPH
rain 1hr
cm
rain 24hr
cm
rain mn
cm
humidity
%
barometer
mb
20260508051538 15 0 0.0 0.0 0.00 0.00 0.00 63 1015.3
20260508050039 15 0 0.0 0.0 0.00 0.00 0.00 62 1015.4
20260508044538 15 0 0.0 0.0 0.00 0.00 0.00 62 1015.5
20260508043034 15 0 0.0 0.0 0.00 0.00 0.00 61 1015.3
20260508041539 15 0 0.0 0.0 0.00 0.00 0.00 61 1015.3
20260508040037 15 0 0.0 0.0 0.00 0.00 0.00 60 1015.3
20260508034536 15 0 0.0 0.0 0.00 0.00 0.00 58 1015.3
20260508033039 16 0 0.0 0.0 0.00 0.00 0.00 57 1015.1
20260508031532 16 0 0.0 0.0 0.00 0.00 0.00 56 1015.1
20260508030032 16 0 0.0 0.0 0.00 0.00 0.00 56 1015.1
20260508024535 16 0 0.0 0.0 0.00 0.00 0.00 53 1014.8
20260508023035 17 0 0.0 0.0 0.00 0.00 0.00 51 1014.7
20260508021534 17 0 0.0 3.2 0.00 0.00 0.00 50 1014.7
20260508020037 18 0 0.0 0.0 0.00 0.00 0.00 50 1014.4
20260508014534 18 88 0.0 3.2 0.00 0.00 0.00 48 1014.5
20260508013038 18 0 0.0 1.6 0.00 0.00 0.00 47 1014.4
20260508011535 19 85 0.0 3.2 0.00 0.00 0.00 46 1014.4
20260508010035 19 0 0.0 4.8 0.00 0.00 0.00 45 1014.6
20260508004538 20 94 1.6 6.4 0.00 0.00 0.00 43 1014.3
20260508003033 20 86 1.6 6.4 0.00 0.00 0.00 44 1014.4
20260508001533 21 0 0.0 6.4 0.00 0.00 0.00 42 1014.4
20260508000037 21 0 0.0 4.8 0.00 0.00 0.00 41 1014.7
20260507234545 22 0 1.6 4.8 0.00 0.00 0.00 39 1014.6
20260507233038 22 0 0.0 0.0 0.00 0.00 0.00 40 1014.6
20260507231540 22 0 0.0 0.0 0.00 0.00 0.00 41 1014.5
20260507230037 22 0 0.0 0.0 0.00 0.00 0.00 41 1014.7
20260507224535 22 0 0.0 0.0 0.00 0.00 0.00 42 1014.9
20260507223032 22 0 0.0 0.0 0.00 0.00 0.00 41 1014.9
20260507221538 22 0 0.0 0.0 0.00 0.00 0.00 38 1015.0
20260507220038 22 0 0.0 0.0 0.00 0.00 0.00 33 1015.1
20260507214535 22 0 0.0 1.6 0.00 0.00 0.00 33 1015.2
20260507213043 23 0 0.0 1.6 0.00 0.00 0.00 33 1015.3
20260507211534 23 0 0.0 1.6 0.00 0.00 0.00 31 1015.4
20260507210035 23 0 0.0 3.2 0.00 0.00 0.00 33 1015.6
20260507204537 23 166 0.0 3.2 0.00 0.00 0.00 31 1015.6
20260507203032 23 181 0.0 4.8 0.00 0.00 0.00 32 1015.5
20260507201539 24 0 0.0 3.2 0.00 0.00 0.00 31 1015.9
20260507200034 24 150 0.0 3.2 0.00 0.00 0.00 33 1016.0
20260507194536 23 134 0.0 4.8 0.00 0.00 0.00 34 1016.2
20260507193034 22 0 0.0 4.8 0.00 0.00 0.00 32 1016.5
20260507191534 22 174 1.6 6.4 0.00 0.00 0.00 32 1016.7
20260507190034 22 0 1.6 4.8 0.00 0.00 0.00 35 1017.0
20260507184537 22 154 0.0 8.0 0.00 0.00 0.00 38 1017.1
20260507183042 21 107 1.6 6.4 0.00 0.00 0.00 36 1017.3
20260507181532 21 195 3.2 9.7 0.00 0.00 0.00 35 1017.4
20260507180035 21 144 3.2 8.0 0.00 0.00 0.00 36 1017.8
20260507174532 21 210 1.6 6.4 0.00 0.00 0.00 36 1017.9
20260507173044 20 0 0.0 6.4 0.00 0.00 0.00 39 1018.3
20260507171550 20 154 1.6 8.0 0.00 0.00 0.00 38 1018.7
20260507170038 19 178 0.0 6.4 0.00 0.00 0.00 41 1019.1
20260507164532 19 108 1.6 4.8 0.00 0.00 0.00 42 1019.5
20260507163034 18 177 1.6 6.4 0.00 0.00 0.00 42 1019.3
20260507161539 18 172 1.6 4.8 0.00 0.00 0.00 42 1019.3
20260507160041 18 0 0.0 6.4 0.00 0.00 0.00 46 1019.3
20260507154538 17 224 1.6 6.4 0.00 0.18 0.00 47 1019.4
20260507153036 17 135 0.0 6.4 0.00 0.18 0.00 51 1019.5
20260507151537 16 193 1.6 4.8 0.00 0.18 0.00 53 1019.6
20260507150034 16 160 1.6 3.2 0.00 0.18 0.00 57 1019.7
20260507144600 15 0 0.0 3.2 0.00 0.18 0.00 60 1019.9
20260507143038 14 0 0.0 1.6 0.00 0.18 0.00 61 1020.0
20260507141540 13 0 0.0 1.6 0.00 0.18 0.00 64 1020.0
20260507140036 13 0 0.0 1.6 0.00 0.18 0.00 64 1020.1
20260507134535 12 0 0.0 1.6 0.00 0.18 0.00 67 1020.4
20260507133039 12 134 0.0 1.6 0.00 0.18 0.00 68 1020.4
20260507131532 12 0 0.0 1.6 0.00 0.18 0.00 70 1020.3
20260507130035 11 0 0.0 0.0 0.00 0.18 0.00 72 1020.3
20260507124537 11 0 0.0 1.6 0.00 0.18 0.00 72 1020.0
20260507123036 11 0 0.0 0.0 0.00 0.18 0.00 73 1019.8
20260507121535 10 0 0.0 0.0 0.00 0.18 0.00 71 1019.9
20260507120034 10 0 0.0 0.0 0.00 0.18 0.00 71 1019.5
20260507114532 10 0 0.0 0.0 0.00 0.18 0.00 70 1019.5
20260507113038 10 0 0.0 0.0 0.00 0.18 0.00 70 1019.3
20260507111541 10 0 0.0 1.6 0.00 0.18 0.00 70 1019.6
20260507110037 11 0 0.0 0.0 0.00 0.18 0.00 69 1019.5
20260507104534 11 0 0.0 0.0 0.00 0.18 0.00 68 1019.1
20260507103037 11 0 0.0 0.0 0.00 0.18 0.00 68 1018.9
20260507101544 11 0 0.0 1.6 0.00 0.18 0.00 69 1018.4
20260507100040 11 0 0.0 0.0 0.00 0.18 0.00 69 1018.4
20260507094544 12 133 0.0 1.6 0.00 0.18 0.00 68 1018.2
20260507093042 12 0 0.0 1.6 0.00 0.18 0.00 68 1017.8
20260507091536 12 0 0.0 1.6 0.00 0.18 0.00 67 1017.7
20260507090036 12 0 0.0 1.6 0.00 0.18 0.00 67 1017.6
20260507084536 12 0 0.0 1.6 0.00 0.18 0.00 66 1017.8
20260507083035 12 0 0.0 1.6 0.00 0.18 0.00 66 1017.8
20260507081539 12 0 0.0 1.6 0.00 0.18 0.00 65 1017.9
20260507080040 12 0 0.0 4.8 0.00 0.18 0.00 64 1017.7
20260507074535 12 0 0.0 3.2 0.00 0.18 0.00 64 1017.5
20260507073039 13 0 0.0 4.8 0.00 0.18 0.00 63 1017.4
20260507071535 13 125 0.0 1.6 0.00 0.18 0.00 63 1017.3
20260507070034 13 126 0.0 3.2 0.00 0.18 0.00 63 1017.2
20260507064533 13 0 0.0 1.6 0.00 0.18 0.00 63 1017.2
20260507063045 13 0 0.0 1.6 0.00 0.18 0.00 62 1017.2
20260507061535 13 0 0.0 1.6 0.00 0.18 0.00 62 1017.1
20260507060048 13 0 0.0 0.0 0.00 0.18 0.00 61 1016.9
20260507054546 14 0 0.0 1.6 0.00 0.18 0.00 61 1016.9
20260507053031 14 0 0.0 4.8 0.00 0.18 0.00 60 1016.7